Location: Bonny Doon Airfield
(37.0704°N, 122.1252°W)
Time: 00:19:23
(UTC-08:00)

N. Korean satellite - Pass Details

Date: 12 October 2017
Orbit: 461 x 513 km, 97.2° (Epoch: 16 December)

Event Time Altitude Azimuth Distance (km) Brightness Sun altitude
Rises 20:20:10 0° 213° (SSW) 2,556 10.6 -21.7°
Reaches altitude 10° 20:23:37 10° 249° (WSW) 1,667 10.1 -22.4°
Maximum altitude 20:24:45 11° 267° (W) 1,588 10.2 -22.6°
Drops below altitude 10° 20:25:54 10° 286° (WNW) 1,661 10.4 -22.8°
Sets 20:29:20 0° 323° (NW) 2,532 10.9 -23.5°
